{"data":{"norad_id":56031,"intl_designator":"2023-042AX","name":"STARLINK-5785","alt_names":[],"object_type":"PAYLOAD","status":"ACTIVE","operator":null,"country":"US","launch_date":"2023-03-24","launch_site_code":"AFETR","launch_vehicle":null,"mission":null,"orbit_class":"UNKNOWN","rcs_meters":null,"size_class":null,"mass_kg":null,"dimensions":null,"purposes":["comms"],"wikipedia_slug":null,"has_3d_model":false,"image_url":null,"decayed_at":null,"tle_current":{"epoch":"2026-09-20T18:37:28.797600Z","epoch_age_seconds":82345,"freshness":"FRESH","line1":"1 56031U 23042AX  26263.77602775  .00000320  00000+0  21173-4 0  9998","line2":"2 56031  43.0043  23.2894 0001300 273.9495  86.1208 15.27572455192877","mean_motion":15.27572455,"eccentricity":0.00013,"inclination_deg":43.0043,"raan_deg":23.2894,"arg_perigee_deg":273.9495,"mean_anomaly_deg":86.1208,"bstar":2.1173e-5,"rev_number":19287,"period_min":94.267214316849,"perigee_km":482.17973144743,"apogee_km":483.96364570646,"semimajor_km":6861.2086885769,"source":"CELESTRAK","updated_at":"2026-09-21T09:00:33.358996Z"}}}